Torna al catalogo

HULIANWANG DIGUI-131

AttivoComunicazioniLEO
NORAD 67239·PAYLOAD·🇨🇳 China

Lanciato Dec 25, 2025 da Wenchang Space Launch Site

Loading…

Prossimi Passaggi (prossime 24 ore)

TLE

AggiornatoSource: Space-Track

Epoca: Sep 14, 2026, 02:46 UTC

1 67239U 25311D   26257.11590550 -.00000078  00000-0  10023-3 0  9992
2 67239  50.0043 157.1404 0000303 301.6457  58.4385 13.29326593 35166

Traccia HULIANWANG DIGUI-131 in tempo reale con AllMySat

Download on the App Store